Total_Precipitation_Accumulation
0.45 0.29 0.27 0.30 0.30 0.26 0.25 0.23 0.18 0.14 0.09 0.06 0.06 0.05 0.04 0.03 0.02 0.02 0.02 0.01 0.00 0.01 0.01 0.00 0.01 0.02 0.01 0.00 0.00 0.00 0.00 0.00 0.00 0.00 0.00 0.00 0.00 0.00 0.00 0.00 0.00 0.00 0.00 0.00 0.00 0.00 0.00
1.46 1.22 0.77 0.49 0.34 0.25 0.23 0.25 0.27 0.26 0.24 0.19 0.15 0.11 0.08 0.07 0.06 0.04 0.02 0.00 0.01 0.01 0.01 0.01 0.01 0.03 0.01 0.00 0.00 0.00 0.00 0.00 0.00 0.00 0.00 0.00 0.00 0.00 0.00 0.00 0.00 0.00 0.00 0.00 0.00 0.00 0.00
0.67 0.82 1.08 1.08 0.88 0.74 0.57 0.35 0.28 0.26 0.26 0.25 0.21 0.18 0.18 0.16 0.14 0.11 0.05 0.01 0.00 0.01 0.01 0.01 0.02 0.04 0.01 0.00 0.00 0.00 0.00 0.00 0.00 0.00 0.00 0.00 0.00 0.00 0.00 0.00 0.00 0.00 0.00 0.00 0.00 0.00 0.00
0.64 0.57 0.55 0.62 0.85 0.95 0.92 0.80 0.66 0.50 0.39 0.40 0.40 0.37 0.31 0.26 0.17 0.09 0.04 0.01 0.00 0.01 0.01 0.01 0.02 0.03 0.00 0.00 0.00 0.00 0.00 0.00 0.00 0.00 0.00 0.00 0.00 0.00 0.00 0.00 0.00 0.00 0.00 0.00 0.00 0.00 0.00
0.54 0.60 0.61 0.62 0.67 0.69 0.67 0.63 0.55 0.47 0.47 0.42 0.36 0.29 0.25 0.18 0.17 0.16 0.11 0.03 0.00 0.01 0.01 0.01 0.01 0.02 0.00 0.00 0.00 0.00 0.00 0.00 0.00 0.00 0.00 0.00 0.00 0.00 0.00 0.00 0.00 0.00 0.00 0.00 0.00 0.00 0.00
0.39 0.38 0.38 0.41 0.42 0.40 0.35 0.29 0.22 0.21 0.21 0.21 0.19 0.18 0.15 0.13 0.14 0.16 0.11 0.07 0.02 0.00 0.00 0.00 0.02 0.01 0.00 0.00 0.00 0.00 0.00 0.01 0.02 0.00 0.00 0.00 0.00 0.00 0.00 0.00 0.00 0.00 0.00 0.00 0.00 0.00 0.00
0.47 0.39 0.33 0.29 0.25 0.25 0.24 0.26 0.29 0.26 0.21 0.18 0.14 0.11 0.12 0.13 0.15 0.16 0.09 0.06 0.07 0.09 0.04 0.01 0.01 0.01 0.00 0.00 0.00 0.00 0.00 0.00 0.01 0.01 0.01 0.03 0.00 0.00 0.01 0.00 0.00 0.00 0.00 0.00 0.00 0.00 0.00
0.52 0.46 0.40 0.36 0.33 0.34 0.34 0.35 0.31 0.24 0.22 0.17 0.15 0.14 0.13 0.11 0.15 0.14 0.04 0.05 0.03 0.11 0.16 0.03 0.01 0.00 0.00 0.00 0.00 0.00 0.00 0.01 0.02 0.04 0.05 0.04 0.04 0.00 0.00 0.00 0.00 0.02 0.02 0.00 0.00 0.00 0.00
0.61 0.56 0.49 0.40 0.36 0.32 0.32 0.34 0.34 0.34 0.30 0.21 0.16 0.16 0.17 0.15 0.14 0.07 0.01 0.01 0.01 0.07 0.22 0.03 0.00 0.00 0.00 0.01 0.00 0.00 0.00 0.00 0.05 0.11 0.06 0.09 0.03 0.00 0.00 0.00 0.01 0.01 0.01 0.00 0.00 0.00 0.02
0.69 0.64 0.56 0.48 0.42 0.38 0.36 0.35 0.31 0.28 0.27 0.25 0.21 0.19 0.22 0.26 0.13 0.04 0.03 0.01 0.03 0.21 0.42 0.04 0.02 0.03 0.04 0.07 0.01 0.00 0.00 0.00 0.07 0.09 0.09 0.21 0.04 0.02 0.03 0.02 0.01 0.06 0.00 0.00 0.02 0.08 0.10
0.72 0.63 0.55 0.50 0.47 0.44 0.39 0.35 0.29 0.29 0.29 0.35 0.30 0.24 0.28 0.27 0.15 0.10 0.04 0.01 0.13 0.37 0.50 0.05 0.11 0.05 0.07 0.05 0.01 0.06 0.00 0.00 0.02 0.07 0.20 0.33 0.21 0.24 0.22 0.05 0.02 0.07 0.00 0.01 0.01 0.02 0.08
0.88 0.71 0.57 0.48 0.47 0.44 0.41 0.38 0.32 0.31 0.27 0.29 0.36 0.31 0.37 0.30 0.14 0.03 0.01 0.09 0.30 0.79 0.36 0.03 0.14 0.10 0.14 0.09 0.01 0.02 0.01 0.00 0.00 0.05 0.06 0.10 0.03 0.06 0.05 0.00 0.01 0.02 0.02 0.03 0.05 0.09 0.22
1.43 1.13 0.94 0.75 0.66 0.59 0.49 0.44 0.38 0.36 0.32 0.34 0.41 0.42 0.42 0.20 0.16 0.12 0.19 0.51 0.92 0.60 0.05 0.03 0.08 0.25 0.16 0.20 0.22 0.05 0.02 0.00 0.00 0.03 0.07 0.07 0.06 0.05 0.03 0.12 0.05 0.05 0.04 0.14 0.31 0.24 0.12
2.73 1.92 1.49 1.20 0.92 0.78 0.67 0.62 0.55 0.51 0.47 0.57 0.66 0.72 0.57 0.25 0.11 0.16 0.46 1.17 0.95 0.28 0.02 0.00 0.11 0.23 0.24 0.17 0.24 0.05 0.02 0.02 0.02 0.02 0.04 0.05 0.19 0.07 0.05 0.27 0.12 0.05 0.05 0.10 0.36 0.22 0.19
3.81 3.52 2.70 1.98 1.57 1.29 1.07 0.95 0.94 0.90 0.91 1.03 1.51 1.43 0.96 0.35 0.19 0.44 1.08 1.21 0.42 0.19 0.01 0.00 0.01 0.10 0.11 0.11 0.45 0.54 0.44 0.13 0.10 0.06 0.20 0.14 0.18 0.08 0.04 0.05 0.07 0.08 0.08 0.05 0.20 0.23 0.32
2.94 3.29 3.64 3.66 2.38 1.75 1.54 1.35 1.16 1.35 1.54 1.60 1.60 1.59 0.96 0.37 0.61 1.17 1.77 0.85 0.08 0.03 0.01 0.01 0.02 0.02 0.13 0.08 0.23 0.85 0.41 0.17 0.04 0.02 0.10 0.19 0.23 0.09 0.12 0.08 0.05 0.04 0.04 0.10 0.23 0.54 0.43
2.14 2.40 2.73 3.16 3.55 2.70 2.01 1.64 1.56 1.57 1.72 1.93 2.40 2.49 1.27 0.68 1.70 2.64 1.83 0.42 0.03 0.00 0.03 0.04 0.05 0.07 0.06 0.07 0.14 0.37 0.44 0.40 0.09 0.05 0.06 0.13 0.28 0.17 0.18 0.26 0.06 0.04 0.07 0.10 0.21 0.24 0.46
1.98 2.05 2.10 2.36 2.63 2.98 3.10 2.21 1.82 1.96 1.95 2.91 3.34 2.53 1.47 1.09 2.44 2.10 0.74 0.15 0.06 0.02 0.02 0.06 0.05 0.08 0.19 0.21 0.11 0.11 0.22 0.34 0.23 0.25 0.10 0.09 0.20 0.17 0.04 0.10 0.04 0.05 0.08 0.11 0.35 0.35 0.48
1.91 2.02 1.90 1.98 2.09 2.23 2.76 3.69 3.00 2.69 2.90 3.02 3.82 2.82 2.94 1.80 1.56 0.73 0.27 0.19 0.13 0.08 0.04 0.07 0.08 0.06 0.13 0.18 0.14 0.17 0.15 0.13 0.17 0.20 0.25 0.16 0.37 0.55 0.35 0.17 0.11 0.13 0.06 0.13 0.27 0.27 0.49
1.84 1.74 1.69 1.88 2.03 2.01 2.11 2.90 3.62 3.30 3.26 3.50 4.39 4.31 5.27 3.98 1.12 0.32 0.31 0.35 0.27 0.09 0.09 0.06 0.05 0.06 0.07 0.08 0.06 0.14 0.19 0.16 0.06 0.10 0.15 0.18 0.24 0.51 0.79 0.61 0.52 0.28 0.08 0.07 0.16 0.52 0.73
1.97 1.75 1.55 1.64 1.91 2.07 2.10 2.34 3.09 3.09 3.48 5.19 5.89 2.93 1.80 2.53 1.56 0.34 0.26 0.36 0.32 0.31 0.16 0.13 0.16 0.11 0.09 0.12 0.07 0.07 0.15 0.18 0.13 0.12 0.21 0.28 0.26 0.17 0.13 0.17 0.66 0.50 0.18 0.15 0.26 0.19 0.45
1.99 1.83 1.60 1.57 1.86 2.17 2.41 2.36 2.82 3.40 4.25 6.75 5.91 2.08 0.93 0.49 0.45 0.77 0.70 0.41 0.31 0.26 0.31 0.24 0.20 0.14 0.12 0.14 0.12 0.11 0.12 0.27 0.21 0.16 0.26 0.43 0.44 0.19 0.11 0.09 0.42 0.44 0.15 0.11 0.14 0.17 0.33
1.96 1.79 1.76 1.56 1.51 1.77 2.19 2.50 2.74 3.68 5.71 8.24 4.43 1.04 0.94 1.02 0.87 1.13 0.78 0.32 0.25 0.27 0.33 0.19 0.18 0.23 0.23 0.14 0.16 0.15 0.14 0.15 0.15 0.14 0.24 0.38 0.61 0.77 0.54 0.17 0.70 1.07 0.75 0.50 0.36 0.45 0.31
1.64 1.80 1.70 1.62 1.54 1.47 1.65 1.93 2.31 3.29 5.51 5.40 3.03 1.11 1.71 1.68 0.84 0.63 0.31 0.26 0.27 0.29 0.32 0.19 0.19 0.26 0.15 0.16 0.17 0.14 0.13 0.10 0.08 0.08 0.12 0.34 0.54 0.83 0.62 0.61 1.45 1.00 0.65 0.68 0.89 0.67 0.78
1.63 1.66 1.82 1.59 1.58 1.58 1.62 1.77 2.18 2.43 4.00 4.85 3.20 1.75 1.76 1.47 0.72 0.65 0.54 0.45 0.42 0.39 0.34 0.24 0.19 0.21 0.29 0.51 0.62 0.54 0.40 0.33 0.18 0.10 0.12 0.14 0.42 1.15 1.11 0.96 0.74 0.41 0.25 0.30 0.51 0.45 0.35
1.68 1.66 1.86 1.66 1.54 1.42 1.46 1.62 1.73 1.70 2.38 4.13 4.36 2.51 2.55 1.97 0.94 0.40 0.40 0.38 0.45 0.52 0.43 0.24 0.26 0.25 0.46 0.88 1.08 0.88 0.54 0.43 0.35 0.41 0.15 0.20 0.33 0.98 1.01 1.08 0.61 0.47 0.31 0.13 0.35 0.74 0.42
1.74 1.66 1.66 1.65 1.52 1.38 1.28 1.20 1.15 1.40 1.83 2.71 3.38 2.70 4.20 3.03 0.67 0.38 0.38 0.30 0.24 0.52 0.65 0.40 0.49 0.60 0.72 1.21 1.09 0.58 0.40 0.26 0.38 0.70 0.64 0.45 0.63 0.87 0.73 1.25 0.68 0.17 0.23 0.32 1.17 1.31 0.71
1.84 1.74 1.55 1.38 1.29 1.29 1.31 1.10 0.96 1.17 1.82 2.53 2.50 1.78 3.92 2.72 0.73 0.45 0.32 0.21 0.22 0.56 0.92 0.73 1.00 0.94 1.05 1.15 1.09 0.79 0.56 0.38 0.37 0.55 0.94 0.82 0.86 0.87 1.04 1.20 0.73 0.20 0.33 0.94 1.62 0.95 0.82
1.76 1.73 1.58 1.33 1.12 1.05 1.16 1.06 1.01 1.20 1.83 2.29 2.44 1.75 2.91 3.36 1.35 0.48 0.37 0.15 0.11 0.22 0.68 0.87 0.81 0.71 0.74 0.98 0.92 0.85 0.75 0.61 0.58 0.70 0.91 1.08 0.75 1.05 0.93 0.89 0.63 0.49 0.54 0.41 0.24 0.19 0.15